Location: *
(32.8667°N, 13.1833°E)
Time: 08:59:45
(UTC+00:00)

Cosmos 1743 Rocket - Pass Details

Date: 18 July 2019
Orbit: 605 x 633 km, 82.6° (Epoch: 23 August)

Event Time Altitude Azimuth Distance (km) Brightness Sun altitude
Exits shadow 20:05:20 47° 111° (ESE) 818 3.7 -19.9°
Maximum altitude 20:05:43 49° 93° (E) 802 3.8 -19.9°
Drops below altitude 10° 20:09:55 10° 19° (NNE) 1,974 6.4 -20.6°
Sets 20:12:11 0° 14° (NNE) 2,878 7.4 -20.9°
